Delta Virtual Airport Information Service

Las Vegas McCarran International Airport

ICAO: KLAS Country: United States
Latitude: 36.0801 Longitude: -115.152
Latest Arrival : DAL1519 (1B) (KLAX-KLAS) Latest Departure : DAL2920 (KLAS-KLAX)


WX CaptureLIVE
Data provided by noaa.gov | Fetched at 00:33:13

METAR : KLAS 120456Z 10003KT 10SM CLR 27/M08 A2993 RMK AO2 SLP114 T02721078

TAF : KLAS 120304Z 1203/1306 22006KT P6SM SKC FM121400 VRB05KT P6SM SKC FM121700 05007KT P6SM SKC FM122300 12007KT P6SM SKC FM130400 22005KT P6SM SKC


Runway Data for KLAS
Data provided by openaviationdata.com

Runway ID Mag Var Hdg Length Elevation Surface ILS Freq ILS Id ILS Slope
01L 15 8993 ft 2114 ft Concrete 110.1 ICUA 3
01R 15 9783 ft 2114 ft Asphalt -- -- --
07L 15 74° 14495 ft 2114 ft Asphalt -- -- --
07R 15 74° 10512 ft 2114 ft Asphalt -- -- --
19L 15 189° 9783 ft 2114 ft Asphalt -- -- --
19R 15 189° 8993 ft 2114 ft Concrete -- -- --
25L 15 254° 10512 ft 2114 ft Asphalt 111.75 IRLE 3
25R 15 254° 14495 ft 2114 ft Asphalt 110.3 ILAS 3

Las Vegas McCarran International Airport, United States
Use only for reference purposes



Not for navigational purposes.